Location: ?????
(44.4284°N, 135.2222°E)
Time: 07:57:12
(UTC+00:00)

OAO 2 Rocket - Pass Details

Date: 19 May 2025
Orbit: 668 x 736 km, 35.0° (Epoch: 23 June)

Event Time Altitude Azimuth Distance (km) Brightness Sun altitude
Exits shadow 18:07:03 17° 232° (SW) 1,761 4.7 -12.2°
Maximum altitude 18:09:50 27° 188° (S) 1,369 4.4 -11.9°
Drops below altitude 10° 18:14:11 10° 131° (SE) 2,221 6.0 -11.3°
Sets 18:16:56 0° 120° (ESE) 3,147 6.9 -10.9°
